www.pogodaiklimat.ru

Погода и климат >> Архив погоды >> Бразилия >> Patos


ПОГОДА в Patos

  • Прогноз погоды в Patos
  • Монитор погоды в Patos
  • Климат города

АРХИВ ПОГОДЫ в Patos

Время (UTC), дата Ветер
(напр.,м/с)
 
Видим.   Явления Облачность Т
(С)
Тd
(С)
f
(%)
Тe
(С)
Тes
(С)
Комфортность P
(гПа)
Po
(гПа)
Тmin
(С)
Tmax
(С)
R
(мм)
R24
(мм)
S
(см)
01 8.12 СВ 2
{3}
н/о н/о +28.4 +14.0 41 +30 +30 жарко 1014.0 984.1
02 8.12 СВ 1
{2}
н/о н/о +27.9 +15.5 47 +31 +31 душно 1014.4 984.5
03 8.12 В 2
{3}
н/о н/о +27.2 +13.5 43 +29 +29 жарко 1013.9 983.9
05 8.12 В 2
{4}
н/о н/о +25.3 +14.2 50 +28 +28 жарко 1013.5 983.4
04 8.12 В 2
{3}
н/о н/о +26.2 +14.0 47 +28 +28 жарко 1013.5 983.4
06 8.12 В 1
{2}
н/о н/о +24.2 +14.8 56 +27 +27 жарко 1013.6 983.3
07 8.12 В 1
{2}
н/о н/о +23.7 +14.9 58 +27 +27 жарко 1013.8 983.5
08 8.12 В 1
{2}
н/о н/о +23.1 +15.2 61 +27 +27 душно 1014.4 984.0
09 8.12 ЮВ 1
{2}
н/о н/о +24.5 +15.4 57 +27 +27 жарко 1014.9 984.6
11 8.12 ЮВ 1
{3}
н/о н/о +27.8 +12.8 40 +29 +29 жарко 1015.0 985.1
10 8.12 ЮВ 2
{3}
н/о н/о +26.3 +14.6 49 +29 +29 жарко 1015.1 985.0
12 8.12 СВ 1
{3}
н/о н/о +29.6 +9.9 29 +29 +29 жарко 1014.5 984.7
13 8.12 З 1
{3}
н/о н/о +30.5 +8.7 26 +30 +30 жарко 1013.7 984.1
14 8.12 С 1
{3}
н/о н/о +32.2 +6.4 20 +30 +30 жарко 1013.0 983.5
15 8.12 СЗ 1
{4}
н/о н/о +33.4 +3.8 16 +31 +31 жарко 1011.7 982.4
17 8.12 СВ 2
{5}
н/о н/о +36.1 +1.4 11 +33 +33 жарко 1008.9 979.9
16 8.12 ЮВ 1
{4}
н/о н/о +35.3 +2.5 13 +32 +32 жарко 1010.2 981.1
18 8.12 С 2
{5}
н/о н/о +36.3 +1.0 11 +33 +33 жарко 1008.1 979.2
19 8.12 С 1
{4}
н/о н/о +36.3 +0.4 10 +33 +33 жарко 1007.6 978.7
20 8.12 С 2
{4}
н/о н/о +35.5 +0.6 11 +32 +32 жарко 1007.9 978.9
21 8.12 С 2
{4}
н/о н/о +34.5 +2.7 14 +32 +32 жарко 1008.7 979.6
23 8.12 В 1
{4}
н/о н/о +30.0 +10.3 29 +30 +30 жарко 1011.9 982.3
22 8.12 ЮВ 2
{5}
н/о н/о +31.4 +8.7 24 +30 +30 жарко 1010.5 981.0
00 9.12 СВ 3
{5}
н/о н/о +30.6 +12.1 32 +31 +31 жарко 1012.9 983.3
01 9.12 СВ 3
{5}
н/о н/о +29.6 +14.3 39 +32 +32 душно 1013.8 984.1
02 9.12 СВ 3
{5}
н/о н/о +28.7 +16.1 46 +32 +32 душно 1014.1 984.3
03 9.12 СВ 2
{4}
н/о н/о +28.3 +15.9 47 +31 +31 душно 1013.9 984.0
05 9.12 В 2
{4}
н/о н/о +26.6 +14.8 48 +29 +29 жарко 1013.4 983.4
04 9.12 В 2
{4}
н/о н/о +27.7 +15.1 46 +30 +30 жарко 1013.4 983.5
06 9.12 В 2
{3}
н/о н/о +25.2 +15.6 55 +28 +28 жарко 1013.8 983.6
07 9.12 В 1
{3}
н/о н/о +24.9 +15.8 57 +28 +28 жарко 1014.3 984.1
08 9.12 ЮВ 1
{2}
н/о н/о +25.2 +15.7 56 +28 +28 жарко 1014.6 984.4
09 9.12 ЮВ 1
{2}
н/о н/о +25.8 +15.7 54 +29 +29 душно 1015.5 985.3
11 9.12 В 2
{4}
н/о н/о +29.1 +13.6 39 +31 +31 жарко 1015.5 985.7
10 9.12 В 2
{3}
н/о н/о +27.7 +15.3 47 +31 +31 душно 1015.5 985.5
12 9.12 СВ 2
{5}
н/о н/о +30.2 +11.9 32 +31 +31 жарко 1015.4 985.7
13 9.12 ЮВ 2
{4}
н/о н/о +31.4 +10.5 28 +31 +31 жарко 1014.9 985.3
14 9.12 ЮВ 1
{3}
н/о н/о +32.2 +9.9 25 +32 +32 жарко 1014.3 984.8
15 9.12 ЮВ 2
{3}
н/о н/о +34.5 +7.8 19 +33 +33 жарко 1012.9 983.7
17 9.12 ЮЗ 1
{5}
н/о н/о +31.4 +10.9 28 +31 +31 жарко 1011.5 982.0 0.4
16 9.12 Ю 2
{6}
н/о н/о +34.3 +9.2 21 +33 +33 жарко 1011.9 982.7
18 9.12 С 1
{5}
н/о н/о +32.5 +9.1 24 +32 +32 жарко 1010.1 980.8
19 9.12 В 2
{5}
н/о н/о +32.8 +8.9 23 +32 +32 жарко 1010.2 980.9
20 9.12 СВ 2
{4}
н/о н/о +32.8 +8.6 22 +31 +31 жарко 1010.7 981.4
21 9.12 СВ 2
{6}
н/о н/о +29.7 +11.2 32 +30 +30 жарко 1012.4 982.7
23 9.12 С 2
{3}
н/о н/о +28.5 +13.7 40 +30 +30 жарко 1015.1 985.2
22 9.12 ЮЗ 1
{4}
н/о н/о +28.6 +11.5 35 +29 +29 жарко 1013.4 983.6
00 10.12 С 1
{3}
н/о н/о +27.6 +16.2 50 +31 +31 душно 1016.0 986.0
01 10.12 С 1
{2}
н/о н/о +27.3 +17.4 55 +31 +31 душно 1016.2 986.2
02 10.12 В 2
{4}
н/о н/о +27.7 +15.4 47 +31 +31 душно 1016.3 986.3
05 10.12 ЮВ 1
{3}
н/о н/о +25.3 +15.0 53 +28 +28 жарко 1015.4 985.2
04 10.12 ЮВ 2
{4}
н/о н/о +26.1 +14.9 50 +29 +29 жарко 1015.7 985.6
06 10.12 Ю 1
{2}
н/о н/о +24.4 +15.3 57 +27 +27 жарко 1015.5 985.2
07 10.12 штиль 0
{2}
н/о н/о +24.0 +15.6 59 +27 +27 жарко 1015.7 985.4
08 10.12 ЮВ 1
{1}
н/о н/о +24.0 +15.9 61 +27 +27 жарко 1016.1 985.7
09 10.12 ЮВ 1
{1}
н/о н/о +25.6 +15.9 55 +29 +29 душно 1016.5 986.3
11 10.12 ЮВ 2
{4}
н/о н/о +28.9 +12.8 37 +30 +30 жарко 1017.2 987.3
10 10.12 ЮВ 2
{3}
н/о н/о +27.6 +13.9 43 +30 +30 жарко 1016.9 986.9
12 10.12 ЮВ 2
{5}
н/о н/о +25.3 +18.8 67 +30 +30 душно 1018.2 987.9 1
13 10.12 В 3
{5}
н/о н/о +29.5 +13.9 38 +31 +31 жарко 1017.2 987.4
14 10.12 ЮВ 3
{6}
н/о н/о +30.2 +12.0 33 +31 +31 жарко 1016.7 986.9
15 10.12 ЮВ 3
{5}
н/о н/о +30.8 +11.2 30 +31 +31 жарко 1015.8 986.1
17 10.12 В 3
{5}
н/о н/о +31.9 +9.8 26 +31 +31 жарко 1013.4 983.9
16 10.12 ЮВ 3
{5}
н/о н/о +32.4 +9.8 25 +32 +32 жарко 1014.2 984.7
18 10.12 ЮВ 2
{5}
н/о н/о +33.4 +8.9 22 +32 +32 жарко 1012.4 983.1
19 10.12 ЮВ 2
{5}
н/о н/о +32.7 +8.8 23 +32 +32 жарко 1012.4 983.0
20 10.12 ЮВ 2
{5}
н/о н/о +32.2 +8.7 23 +31 +31 жарко 1012.5 983.1
21 10.12 В 3
{5}
н/о н/о +31.2 +8.0 24 +30 +30 жарко 1013.5 983.9
23 10.12 ЮВ 3
{4}
н/о н/о +29.1 +10.6 32 +29 +29 жарко 1015.7 985.9
22 10.12 В 2
{6}
н/о н/о +30.0 +8.5 26 +29 +29 жарко 1014.9 985.2
00 11.12 В 2
{5}
н/о н/о +28.0 +12.0 37 +29 +29 жарко 1016.5 986.5
01 11.12 ЮВ 3
{5}
н/о н/о +27.1 +13.1 42 +29 +29 жарко 1016.9 986.8
02 11.12 В 2
{4}
н/о н/о +26.2 +14.1 47 +28 +28 жарко 1017.0 986.8
03 11.12 ЮВ 2
{4}
н/о н/о +25.5 +14.9 52 +28 +28 жарко 1016.4 986.2
05 11.12 В 1
{3}
н/о н/о +24.5 +14.8 55 +27 +27 жарко 1015.8 985.5
04 11.12 ЮВ 2
{3}
н/о н/о +25.0 +15.1 54 +28 +28 жарко 1016.1 985.8
06 11.12 ЮВ 2
{4}
н/о н/о +24.7 +14.7 54 +27 +27 жарко 1015.8 985.5
07 11.12 ЮВ 2
{3}
н/о н/о +24.5 +14.3 53 +27 +27 жарко 1015.7 985.4
08 11.12 ЮВ 1
{3}
н/о н/о +23.4 +14.7 58 +27 +27 душно 1015.8 985.4
09 11.12 В 1
{2}
н/о н/о +25.1 +14.4 51 +28 +28 жарко 1016.2 986.0
11 11.12 ЮВ 4
{6}
н/о н/о +28.4 +10.9 34 +29 +29 жарко 1016.5 986.6
10 11.12 ЮВ 3
{5}
н/о н/о +26.4 +13.1 44 +28 +28 жарко 1016.7 986.6
12 11.12 ЮВ 4
{7}
н/о н/о +29.7 +8.5 27 +29 +29 жарко 1016.6 986.8
13 11.12 ЮВ 3
{6}
н/о н/о +31.8 +7.6 22 +30 +30 жарко 1015.8 986.2
14 11.12 ЮВ 3
{6}
н/о н/о +32.3 +4.3 17 +30 +30 жарко 1015.0 985.5
15 11.12 В 3
{7}
н/о н/о +33.5 +1.8 13 +30 +30 жарко 1014.2 984.8
17 11.12 В 3
{5}
н/о н/о +35.2 +1.0 12 +32 +32 жарко 1012.2 983.0
16 11.12 В 2
{5}
н/о н/о +33.7 +1.5 13 +31 +31 жарко 1013.3 984.0
18 11.12 ЮВ 3
{6}
н/о н/о +35.1 +0.3 11 +32 +32 жарко 1011.5 982.4
19 11.12 ЮВ 4
{6}
н/о н/о +34.2 +0.1 11 +31 +31 жарко 1011.5 982.3
20 11.12 В 3
{5}
н/о н/о +33.4 +0.9 13 +30 +30 жарко 1012.1 982.8
21 11.12 ЮВ 2
{4}
н/о н/о +31.6 +2.7 16 +29 +29 жарко 1012.9 983.4
23 11.12 ЮВ 3
{5}
н/о н/о +29.4 +6.0 23 +28 +28 жарко 1014.5 984.7
22 11.12 ЮВ 2
{4}
н/о н/о +30.4 +4.3 19 +28 +28 жарко 1013.7 984.0
00 12.12 ЮВ 4
{6}
н/о н/о +28.3 +6.5 25 +27 +27 жарко 1015.0 985.1
01 12.12 ЮВ 4
{7}
н/о н/о +27.1 +8.7 31 +27 +27 жарко 1015.7 985.7
02 12.12 ЮВ 3
{6}
н/о н/о +26.0 +11.1 39 +27 +27 жарко 1015.8 985.7
03 12.12 ЮВ 2
{5}
н/о н/о +25.3 +12.5 45 +27 +27 жарко 1015.7 985.5
04 12.12 ЮВ 2
{3}
н/о н/о +24.6 +13.4 50 +27 +27 жарко 1015.3 985.0
06 12.12 ЮВ 3
{5}
н/о н/о +25.2 +12.3 45 +27 +27 жарко 1014.7 984.5
07 12.12 ЮВ 2
{5}
н/о н/о +24.9 +12.3 45 +27 +27 жарко 1015.1 984.9
15 12.12 ЮВ 3
{5}
н/о н/о +32.6 +5.4 18 +30 +30 жарко 1013.5 984.1
16 12.12 В 3
{5}
н/о н/о +34.1 +3.5 15 +31 +31 жарко 1012.4 983.1
17 12.12 В 4
{6}
н/о н/о +32.7 +6.8 20 +31 +31 жарко 1011.9 982.5
18 12.12 В 3
{5}
н/о н/о +33.5 +6.3 18 +31 +31 жарко 1011.2 981.9
20 12.12 ЮВ 2
{4}
н/о н/о +32.4 +5.6 19 +30 +30 жарко 1011.2 981.8
19 12.12 ЮВ 2
{5}
н/о н/о +33.6 +4.3 16 +31 +31 жарко 1010.9 981.6
21 12.12 В 2
{4}
н/о н/о +31.4 +2.4 16 +29 +29 жарко 1011.7 982.2
22 12.12 В 2
{3}
н/о н/о +30.0 +4.8 20 +28 +28 жарко 1012.7 983.0
23 12.12 В 3
{5}
н/о н/о +29.0 +6.5 24 +28 +28 жарко 1013.4 983.6
00 13.12 В 2
{5}
н/о н/о +27.9 +6.9 26 +27 +27 жарко 1013.9 984.0
02 13.12 В 3
{5}
н/о н/о +25.8 +10.7 39 +27 +27 жарко 1014.3 984.2
01 13.12 ЮВ 3
{5}
н/о н/о +27.0 +8.4 31 +27 +27 жарко 1014.1 984.1
03 13.12 ЮВ 3
{5}
н/о н/о +24.8 +12.1 45 +26 +26 жарко 1013.8 983.6
04 13.12 ЮВ 2
{5}
н/о н/о +24.0 +12.8 50 +26 +26 жарко 1013.4 983.1
05 13.12 ЮВ 2
{5}
н/о н/о +23.8 +12.3 48 +26 +26 жарко 1013.1 982.8
06 13.12 ЮВ 2
{4}
н/о н/о +23.3 +13.1 53 +26 +26 жарко 1013.2 982.9
08 13.12 С 1
{2}
н/о н/о +21.9 +12.7 56 +24 +24 комфорт 1014.5 984.0
07 13.12 В 1
{3}
н/о н/о +22.8 +12.3 52 +26 +26 жарко 1013.6 983.2
09 13.12 штиль 0
{1}
н/о н/о +24.7 +13.3 49 +27 +27 жарко 1014.7 984.5
10 13.12 ЮВ 1
{2}
н/о н/о +26.2 +11.4 40 +27 +27 жарко 1014.9 984.8
11 13.12 В 2
{4}
н/о н/о +28.6 +10.1 32 +29 +29 жарко 1014.8 984.9
12 13.12 В 3
{5}
н/о н/о +29.6 +8.8 27 +29 +29 жарко 1014.8 985.0
14 13.12 ЮВ 2
{5}
н/о н/о +32.6 +6.2 19 +31 +31 жарко 1013.6 984.2
13 13.12 ЮВ 3
{5}
н/о н/о +30.8 +7.4 23 +30 +30 жарко 1014.3 984.7
15 13.12 ЮВ 3
{5}
н/о н/о +32.8 +3.1 15 +30 +30 жарко 1012.8 983.4
16 13.12 ЮВ 2
{5}
н/о н/о +34.2 +1.7 13 +31 +31 жарко 1011.7 982.5
17 13.12 В 2
{4}
н/о н/о +34.6 +1.7 13 +31 +31 жарко 1010.6 981.4
18 13.12 ЮВ 2
{4}
н/о н/о +34.9 -0.8 10 +31 +31 жарко 1010.1 981.0
19 13.12 СВ 2
{3}
н/о н/о +34.5 +0.1 11 +31 +31 жарко 1010.0 980.8
21 13.12 ЮВ 2
{3}
н/о н/о +32.6 +3.4 16 +30 +30 жарко 1010.8 981.4
22 13.12 В 2
{3}
н/о н/о +31.7 +4.4 18 +29 +29 жарко 1011.4 981.9
23 13.12 В 2
{3}
н/о н/о +30.8 +6.9 22 +29 +29 жарко 1012.3 982.7
00 14.12 В 3
{6}
н/о н/о +28.4 +11.5 35 +29 +29 жарко 1013.1 983.3
01 14.12 В 2
{5}
н/о н/о +27.2 +13.3 42 +29 +29 жарко 1013.9 983.9
02 14.12 В 3
{5}
н/о н/о +26.4 +13.8 46 +29 +29 жарко 1014.5 984.4
03 14.12 В 2
{4}
н/о н/о +26.1 +13.7 46 +28 +28 жарко 1014.4 984.3
04 14.12 ЮВ 2
{4}
н/о н/о +25.4 +13.7 48 +28 +28 жарко 1013.8 983.7
05 14.12 В 2
{4}
н/о н/о +25.0 +13.5 49 +27 +27 жарко 1013.5 983.3
06 14.12 В 2
{4}
н/о н/о +24.6 +13.5 50 +27 +27 жарко 1013.2 983.0
07 14.12 В 2
{3}
н/о н/о +24.1 +13.5 52 +26 +26 жарко 1013.6 983.3
08 14.12 В 1
{2}
н/о н/о +23.5 +14.2 56 +26 +26 жарко 1014.2 983.9
09 14.12 ЮВ 2
{3}
н/о н/о +24.9 +14.1 51 +27 +27 жарко 1014.7 984.5
10 14.12 ЮВ 2
{4}
н/о н/о +26.3 +12.9 43 +28 +28 жарко 1015.2 985.1
11 14.12 ЮВ 2
{4}
н/о н/о +28.6 +10.5 32 +29 +29 жарко 1015.2 985.3
12 14.12 ЮВ 2
{4}
н/о н/о +29.7 +9.1 28 +29 +29 жарко 1015.1 985.3
13 14.12 В 2
{4}
н/о н/о +31.5 +8.7 24 +30 +30 жарко 1014.5 984.9
14 14.12 В 3
{4}
н/о н/о +32.5 +7.6 21 +31 +31 жарко 1013.8 984.3
15 14.12 ЮВ 2
{4}
н/о н/о +34.8 +4.3 15 +32 +32 жарко 1012.5 983.3
16 14.12 В 2
{5}
н/о н/о +34.6 +1.6 12 +31 +31 жарко 1011.6 982.4
17 14.12 В 2
{4}
н/о н/о +34.8 -2.2 9 +31 +31 жарко 1010.5 981.4
18 14.12 В 2
{4}
н/о н/о +35.7 -3.9 8 +32 +32 жарко 1010.0 981.0
19 14.12 ЮВ 2
{4}
н/о н/о +35.5 -5.3 7 +31 +31 жарко 1010.1 981.0
20 14.12 В 2
{4}
н/о н/о +34.5 -5.2 8 +30 +30 жарко 1010.5 981.3
21 14.12 ЮВ 2
{4}
н/о н/о +32.4 -1.1 12 +29 +29 жарко 1011.2 981.8
22 14.12 ЮВ 1
{3}
н/о н/о +31.2 0.0 13 +28 +28 жарко 1011.9 982.4
23 14.12 ЮВ 3
{6}
н/о н/о +30.8 +5.0 20 +29 +29 жарко 1013.2 983.6
00 15.12 ЮВ 3
{6}
н/о н/о +28.6 +9.3 30 +29 +29 жарко 1014.6 984.7

 

Местоположение метеостанции Patos (Бразилия): широта -7.08 долгота -37.27 высота над уровнем моря 282 м.

В архиве по умолчанию представлена погода в Patos за последнюю неделю. Архивные данные за месяц целиком и за предыдущие месяцы, начиная с января 2011 года, Вы можете получить, выбрав интересующий диапазон дат из раскрывающегося списка и нажав кнопку "Ввод!".


*Определитесь, кто Вы:
робот инопланетянин человек

Внимание! Время в таблицах - всемирное. Для получения местного времени необходимо прибавить поправку, которая в Patos равна -3 ч.

Смотрите также архив погоды в соседних городах и на ближайших метеорологических станциях:

Погода в Patos (Бразилия) (7 км)
Погода в Caico (Бразилия) (72 км)
Погода в Monteiro (Бразилия) (93 км)
Погода в Sao Goncalo (Бразилия) (118 км)
Погода в Cabaceiras (Бразилия) (118 км)
Погода в Triunfo (Бразилия) (128 км)
Погода в Serra Talhada (Бразилия) (149 км)
Погода в Arco Verde (Бразилия) (152 км)
Погода в Campina Grande (Бразилия) (152 км)
Погода в Campina Grande (Бразилия) (154 км)

Пояснения к столбцам:

Ветер - указаны скорость ветра в м/с - средняя за 10 мин, порывы в срок и между сроками (в фигурных скобках) и направление, откуда дует ветер: С - северный, СВ - северо-восточный, В - восточный, ЮВ - юго-восточный, Ю - южный, ЮЗ - юго-западный, З - западный, СЗ - северо-западный.
Видимость - горизонтальная дальность видимости в метрах или километрах. При видимости от 1 до 10 км при отсутствии осадков обычно наблюдается дымка, при ухудшении видимости до 1 км и менее - туман. В сухую погоду видимость может ухудшаться дымом, пылью или мглою.
Явления - указаны атмосферные явления, наблюдавшиеся в срок или в последний час перед сроком; фигурными скобками обозначены явления, наблюдавшиеся между сроками (за 1-3 часа до срока); квадратными скобками обозначены град или гололедные отложения с указанием их диаметра в мм.
Облачность - указаны через наклонную черту общая и нижняя облачность в баллах и высота нижней границы облаков в метрах; квадратными скобками обозначены формы облаков: Ci - перистые, Cs - перисто-слоистые, Cc - перисто-кучевые, Ac - высококучевые, As - высокослоистые, Sc - слоисто-кучевые, Ns - слоисто-дождевые, Cu - кучевые, Cb - кучево-дождевые. Подробнее классификацию облаков см. в Атласе облаков (PDF).
T - Температура воздуха - температура, измеренная на высоте 2 м над землей.
Td - Температура точки росы - температура, при понижении до которой содержащийся в воздухе водяной пар достигнет насыщения.
f - Относительная влажность воздуха - влажноcть воздуха, измеренная на высоте 2 м над землей.
Te - Эффективная температура - температура, которую ощущает одетый по сезону человек в тени. Характеристика душности погоды. При расчете учитывается влияние влажности воздуха и скорости ветра на теплоощущения человека.
Tes - Эффективная температура на солнце - температура, которую ощущает человек, с поправкой на солнечный нагрев. Характеристика знойности погоды. Зависит от высоты солнца над горизонтом, облачности и скорости ветра. Ночью, в пасмурную погоду, а также при ветре 12 м/с и более поправка равна нулю.
P - Атмосферное давление - приведенное к уровню моря атмосферное давление.
Po - Атмосферное давление - измеренное на уровне метеостанции атмосферное давление.
Tmin - Минимальная температура - минимум температуры воздуха на высоте 2 м над землей.
Tmax - Максимальная температура - максимум температуры воздуха на высоте 2 м над землей.
R - Количество осадков - Количество выпавших осадков за период времени, мм. При наведении курсора мыши на число - период времени, за который выпало указанное количество осадков.
R24 - Количество осадков - Количество выпавших осадков за 24 часа, мм.
S - Снежный покров - Высота снежного покрова, см. При наведении курсора мыши на число - состояние снежного покрова и степень покрытия местности в баллах.